Regional Weather Roundup
Issued by NWS

Home | Current Version | Previous Version | Graphics & Text | Print | Product List | Glossary On
Versions: 1 2 3 4 5 6 7 8 9 10 11 12 13 14 15 16 17 18 19 20 21 22 23 24 25 26 27 28 29 30 31 32 33 34 35 36 37 38 39 40 41 42 43 44 45 46 47 48 49 50
000
ASUS45 KBOI 011510
RWRID
WEATHER ROUNDUP FOR IDAHO
NATIONAL WEATHER SERVICE BOISE ID
800 AM MST SUN FEB 01 2015

NOTE: "FAIR" INDICATES FEW OR NO CLOUDS BELOW 12000 FEET
WITH NO SIGNIFICANT WEATHER AND/OR OBSTRUCTIONS TO VISIBILITY

IDZ012-014-011600-
SOUTHWEST IDAHO


CITY           SKY/WX    TMP DP  RH WIND       PRES   REMARKS
BOISE          CLOUDY    35  23  61 SE10      30.17S WCI  27
CALDWELL       CLOUDY    32  25  74 SE3       30.19S
MOUNTAIN HOME  CLOUDY    30  27  88 E17       30.18F WCI  18
$$

IDZ016-017-011600-
SOUTHCENTRAL IDAHO


CITY           SKY/WX    TMP DP  RH WIND       PRES   REMARKS
BURLEY         CLEAR     26  23  88 NE7       30.20R WCI  18
JEROME         PTCLDY    28  26  92 NE14      30.20R WCI  17
TWIN FALLS     CLEAR     27  23  85 SE7       30.19S WCI  19
$$

IDZ019>023-011600-
SOUTHEAST IDAHO


CITY           SKY/WX    TMP DP  RH WIND       PRES   REMARKS
IDAHO FALLS    CLOUDY    29  26  89 N6        30.22S WCI  23
POCATELLO      MOCLDY    29  29 100 NE5       30.22S WCI  24
REXBURG        CLOUDY    24  23  96 NE3       30.21S
$$

IDZ006-010-011-018-031-032-011600-
CENTRAL IDAHO MOUNTAINS


CITY           SKY/WX    TMP DP  RH WIND       PRES   REMARKS
MCCALL         CLOUDY    23  18  81 CALM      30.12F
HAILEY         PTCLDY    18   9  68 CALM      30.19S
STANLEY          N/A      6  -1  73 SE5       30.19F WCI  -3
SALMON         CLOUDY    21  18  86 E3        30.26S
CHALLIS        CLOUDY    17  15  92 NE3       30.21S
$$

IDZ002-004-006-007-026-011600-
NORTHERN IDAHO


CITY           SKY/WX    TMP DP  RH WIND       PRES   REMARKS
LEWISTON       CLOUDY    34  30  85 E6        30.17F WCI  29
LOWELL           N/A     31  28  89 CALM      30.27F
COEUR D`ALENE  CLOUDY    30  27  86 NE8       30.15F WCI  23
MULLAN PASS    CLOUDY    22  17  81 S9        30.04F WCI  12
$$


USA.gov is the U.S. government's official web portal to all federal, state and local government web resources and services.